IZ2OSD Weather Reports


time (UTC)temp
F
wind
direction
speed
knots
gust
knots
rain 1hr
in
rain 24hr
in
rain mn
in
humidity
%
barometer
mb
20260509141527 74 315 1.7 3.5 0.00 0.00 0.00 46 1013.6
20260509140523 75 315 0.9 0.9 0.00 0.00 0.00 45 1013.6
20260509135518 76 292 0.0 1.7 0.00 0.00 0.00 46 1013.7
20260509134515 76 315 1.7 1.7 0.00 0.00 0.00 45 1014.1
20260509133506 76 292 1.7 2.6 0.00 0.00 0.00 44 1014.0
20260509132505 75 0 0.9 1.7 0.00 0.00 0.00 46 1014.3
20260509131459 75 292 0.9 2.6 0.00 0.00 0.00 46 1014.4
20260509130454 77 0.0 0.0 0.00 0.00 0.00 43 1014.3
20260509125451 77 292 0.0 1.7 0.00 0.00 0.00 43 1014.4
20260509124447 76 315 1.7 2.6 0.00 0.00 0.00 43 1014.6
20260509123444 75 315 2.6 3.5 0.00 0.00 0.00 45 1014.4
20260509122441 77 270 0.9 2.6 0.00 0.00 0.00 43 1014.3
20260509121439 77 0 0.0 0.9 0.00 0.00 0.00 41 1014.8
20260509120428 77 0.0 0.9 0.00 0.00 0.00 37 1014.7
20260509115423 76 90 0.9 5.2 0.00 0.00 0.00 41 1014.7
20260509114419 76 292 1.7 3.5 0.00 0.00 0.00 41 1014.7
20260509113417 74 112 0.9 1.7 0.00 0.00 0.00 42 1014.7
20260509112427 73 135 1.7 2.6 0.00 0.00 0.00 46 1014.8
20260509111404 76 112 1.7 3.5 0.00 0.00 0.00 42 1014.8
20260509110354 76 315 0.0 1.7 0.00 0.00 0.00 45 1015.2
20260509105350 75 0.0 0.9 0.00 0.00 0.00 46 1015.2
20260509104346 74 112 0.9 1.7 0.00 0.00 0.00 46 1015.6
20260509103343 76 135 0.9 1.7 0.00 0.00 0.00 42 1015.9
20260509102339 75 292 0.9 1.7 0.00 0.00 0.00 44 1015.8
20260509101334 76 112 0.9 1.7 0.00 0.00 0.00 42 1015.9
20260509100331 74 202 0.0 0.9 0.00 0.00 0.00 46 1015.8
20260509095330 73 270 0.9 1.7 0.00 0.00 0.00 47 1016.0
20260509094326 75 0.0 0.9 0.00 0.00 0.00 48 1016.3
20260509093318 73 270 0.0 0.9 0.00 0.00 0.00 52 1016.2
20260509092313 74 292 0.9 1.7 0.00 0.00 0.00 50 1015.9
20260509091330 74 292 0.9 1.7 0.00 0.00 0.00 52 1016.0
20260509090305 74 247 0.0 0.9 0.00 0.00 0.00 52 1016.0
20260509085255 73 292 0.0 0.9 0.00 0.00 0.00 54 1016.3
20260509084333 71 292 0.9 1.7 0.00 0.00 0.00 56 1016.4
20260509083309 73 0.0 0.0 0.00 0.00 0.00 54 1016.4
20260509082245 72 292 0.0 0.9 0.00 0.00 0.00 57 1016.2
20260509081241 71 292 0.9 1.7 0.00 0.00 0.00 57 1016.4
20260509080238 71 292 0.0 0.9 0.00 0.00 0.00 60 1016.3
20260509075234 71 292 0.0 0.9 0.00 0.00 0.00 59 1016.5
20260509074231 70 292 0.9 1.7 0.00 0.00 0.00 60 1016.7
20260509073249 71 292 0.0 1.7 0.00 0.00 0.00 58 1016.4
20260509072243 69 0.0 0.0 0.00 0.00 0.00 61 1016.3
20260509071220 68 292 0.0 0.9 0.00 0.00 0.00 61 1016.1
20260509070218 66 292 0.9 1.7 0.00 0.00 0.00 66 1016.4
20260509065255 66 292 0.0 0.9 0.00 0.00 0.00 67 1016.3
20260509064209 63 292 1.7 1.7 0.00 0.00 0.00 71 1016.2
20260509063206 62 292 0.9 2.6 0.00 0.00 0.00 75 1016.2
20260509062203 62 292 1.7 1.7 0.00 0.00 0.00 74 1016.0
20260509060911 60 292 1.7 1.7 0.00 0.00 0.00 76 1016.3
20260509055907 60 292 0.9 1.7 0.00 0.00 0.00 76 1016.3
20260509054923 59 292 0.9 1.7 0.00 0.00 0.00 77 1016.2
20260509053919 60 0.0 0.9 0.00 0.00 0.00 76 1016.3
20260509052855 60 0.0 0.0 0.00 0.00 0.00 77 1016.2
20260509051850 59 0.0 0.0 0.00 0.00 0.00 78 1016.1
20260509050906 57 315 0.0 0.9 0.00 0.00 0.00 80 1016.1
20260509045842 56 0.0 0.0 0.00 0.00 0.00 84 1015.9
20260509044838 54 0.0 0.0 0.00 0.00 0.00 86 1015.7
20260509043855 54 0.0 0.0 0.00 0.00 0.00 87 1015.6
20260509042831 53 0.0 0.0 0.00 0.00 0.00 88 1015.3
20260509041827 52 0.0 0.0 0.00 0.00 0.00 88 1015.5
20260509040825 52 0.0 0.0 0.00 0.00 0.00 89 1015.3
20260509035820 53 0.0 0.0 0.00 0.00 0.00 89 1015.3
20260509034817 53 0.0 0.0 0.00 0.00 0.00 88 1015.2
20260509033813 53 0.0 0.0 0.00 0.00 0.00 89 1015.4
20260509032811 53 0.0 0.0 0.00 0.00 0.00 89 1015.4
20260509031807 53 292 0.0 0.9 0.00 0.00 0.00 88 1015.3
20260509030825 53 0.0 0.0 0.00 0.00 0.00 89 1015.5
20260509025801 53 0.0 0.0 0.00 0.00 0.00 89 1015.3
20260509024758 53 0.0 0.9 0.00 0.00 0.00 89 1015.1
20260509023756 53 315 1.7 2.6 0.00 0.00 0.00 88 1015.1
20260509022753 53 315 0.0 0.9 0.00 0.00 0.00 88 1015.1
20260509021749 53 315 0.9 1.7 0.00 0.00 0.00 89 1015.2
20260509020745 53 315 2.6 3.5 0.00 0.00 0.00 89 1015.3
20260509015741 53 292 0.9 1.7 0.00 0.00 0.00 88 1015.3
20260509014800 54 292 0.9 1.7 0.00 0.00 0.00 88 1015.3
20260509013734 54 0.0 0.9 0.00 0.00 0.00 88 1015.6
20260509012731 54 0.0 0.0 0.00 0.00 0.00 88 1015.8
20260509011729 54 0.0 0.0 0.00 0.00 0.00 89 1015.6
20260509010725 54 292 0.0 0.9 0.00 0.00 0.00 89 1015.5
20260509005723 54 0.0 0.0 0.00 0.00 0.00 89 1015.3
20260509004719 54 0.0 0.0 0.00 0.00 0.00 88 1015.6
20260509003715 54 0.0 0.0 0.00 0.00 0.00 88 1015.5
20260509002711 55 0.0 0.0 0.00 0.00 0.00 87 1015.5
20260509001708 55 0.0 0.0 0.00 0.00 0.00 87 1015.7
20260509000705 55 292 0.9 0.9 0.00 0.00 0.00 87 1015.1
20260508235701 55 0.0 0.0 0.00 0.00 0.00 86 1015.3
20260508234657 55 292 0.0 0.9 0.00 0.00 0.00 86 1015.5
20260508233654 55 0.0 0.0 0.00 0.00 0.00 86 1015.4
20260508232651 55 292 0.9 1.7 0.00 0.00 0.00 86 1015.5
20260508231646 55 292 0.9 1.7 0.00 0.00 0.00 86 1015.4
20260508230642 56 0.0 0.0 0.00 0.00 0.00 86 1015.3
20260508225640 56 0.0 0.0 0.00 0.00 0.00 85 1015.1
20260508224638 56 0.0 0.0 0.00 0.00 0.00 85 1015.4
20260508223632 56 0.0 0.0 0.00 0.00 0.00 86 1015.5
20260508222648 56 292 0.0 0.9 0.00 0.00 0.00 87 1015.4
20260508221624 56 292 0.0 0.9 0.00 0.00 0.00 87 1015.3
20260508220621 57 0.0 0.0 0.00 0.00 0.00 86 1015.3
20260508215617 56 292 0.0 0.9 0.00 0.00 0.00 86 1015.3
20260508214615 57 292 0.9 1.7 0.00 0.00 0.00 85 1015.5
20260508213612 57 0.0 0.0 0.00 0.00 0.00 85 1015.3
20260508212608 57 0.0 0.0 0.00 0.00 0.00 85 1015.3
20260508211626 58 0.0 0.0 0.00 0.00 0.00 84 1015.3
20260508210601 58 0.0 0.0 0.00 0.00 0.00 82 1015.3
20260508205618 59 0.0 0.0 0.00 0.00 0.00 81 1015.1
20260508204554 59 0.0 0.0 0.00 0.00 0.00 81 1015.1
20260508203552 59 0.0 0.0 0.00 0.00 0.00 80 1015.1
20260508202607 59 0.0 0.0 0.00 0.00 0.00 79 1015.0
20260508201603 59 0.0 0.9 0.00 0.00 0.00 80 1015.1
20260508200540 59 292 0.9 1.7 0.00 0.00 0.00 79 1015.0
20260508195556 59 292 0.9 1.7 0.00 0.00 0.00 78 1015.0
20260508194532 60 292 0.0 0.9 0.00 0.00 0.00 77 1014.9
20260508193652 60 292 0.0 0.9 0.00 0.00 0.00 77 1014.5
20260508192525 60 292 0.9 2.6 0.00 0.00 0.00 77 1014.5
20260508191521 61 292 0.9 1.7 0.00 0.00 0.00 75 1014.4
20260508190518 62 0.0 0.0 0.00 0.00 0.00 73 1014.1
20260508185536 62 292 0.9 1.7 0.00 0.00 0.00 73 1014.0
20260508184509 62 292 0.9 1.7 0.00 0.00 0.00 71 1014.0
20260508183506 62 292 0.9 1.7 0.00 0.00 0.00 71 1013.9
20260508182504 63 292 0.9 1.7 0.00 0.00 0.00 71 1013.8
20260508182002 63 292 0.9 1.7 0.00 0.00 0.00 70 1014.0
20260508180958 64 0.0 0.9 0.00 0.00 0.00 70 1013.7
20260508175955 63 292 0.9 1.7 0.00 0.00 0.00 68 1013.9
20260508175011 63 292 0.9 1.7 0.00 0.00 0.00 69 1013.9
20260508173947 63 315 0.9 1.7 0.00 0.00 0.00 68 1013.8
20260508172943 64 292 1.7 2.6 0.00 0.00 0.00 67 1013.8
20260508171939 64 292 0.0 0.9 0.00 0.00 0.00 65 1013.8
20260508170936 64 292 1.7 2.6 0.00 0.00 0.00 65 1013.8
20260508165954 64 315 2.6 2.6 0.00 0.00 0.00 65 1013.6
20260508164930 63 315 1.7 2.6 0.00 0.00 0.00 65 1013.6
20260508163927 63 315 2.6 3.5 0.00 0.00 0.00 63 1013.6
20260508162923 63 315 2.6 3.5 0.00 0.00 0.00 62 1013.4
20260508161939 64 315 2.6 3.5 0.00 0.00 0.00 61 1013.6
20260508160916 64 292 5.2 7.8 0.00 0.00 0.00 59 1013.6
20260508155936 64 315 2.6 3.5 0.00 0.00 0.00 59 1013.6
20260508154910 65 292 2.6 5.2 0.00 0.00 0.00 57 1013.9
20260508153907 67 292 0.9 2.6 0.00 0.00 0.00 57 1014.0
20260508152904 68 315 1.7 2.6 0.00 0.00 0.00 62 1013.9
20260508151900 68 337 0.0 1.7 0.00 0.00 0.00 62 1014.1
20260508150857 69 270 0.9 2.6 0.00 0.00 0.00 63 1013.8
20260508145915 71 292 2.6 3.5 0.00 0.00 0.00 59 1013.8
20260508144849 71 292 0.0 0.9 0.00 0.00 0.00 57 1013.7
20260508143846 70 292 1.7 2.6 0.00 0.00 0.00 57 1014.0
20260508142842 71 292 0.9 1.7 0.00 0.00 0.00 57 1013.9
20260508141840 71 315 0.9 1.7 0.00 0.00 0.00 57 1013.9